#timestamp,LO_Frequency,Hit,StdDev 
1655244015.2,286047001.1,N
1655244035.0,286047000.4,N
1655244035.9,286047000.4,N
1655244055.8,286047000.5,N
1655244075.6,286046999.9,N
1655244095.5,286047002.4,Y
1655244115.3,286047000.9,P
1655244135.1,286046998.1,P
1655244155.9,286046999.0,N
1655244175.7,286046999.4,N
1655244195.6,286046996.9,Y
1655244215.4,286046997.0,P
1655244235.2,286046997.5,N
1655244255.1,286046997.1,N
1655244256.0,286046997.1,N
1655244275.8,286046997.3,N
1655244295.6,286046997.5,N
1655244315.5,286046996.7,Y
1655244335.3,286047002.3,P
1655244355.2,286046999.7,N
1655244375.9,286047001.6,N
1655244395.7,286047002.4,N
1655244415.6,286047000.8,N
1655244435.4,286046999.7,N
1655244455.2,286047001.9,N
1655244475.1,286047001.5,N
1655244476.0,286047001.5,N
1655244495.8,286047001.9,N
1655244515.7,286047002.1,N
1655244535.5,286047002.7,N
1655244555.3,286047000.2,N
1655244575.2,286046999.9,N
1655244595.0,286047002.1,N
1655244595.9,286047002.1,N
1655244615.7,286047000.0,N
1655244635.6,286047000.6,N
1655244655.4,286047000.2,N
1655244675.3,286046998.2,N
1655244695.1,286047000.6,N
1655244696.0,286047000.6,N
1655244715.8,286047000.9,N
1655244735.7,286046998.5,N
1655244755.5,286046998.6,N
1655244775.3,286046998.5,N
1655244795.2,286046998.2,N
1655244815.0,286046998.5,N
1655244815.9,286046998.5,N
1655244835.8,286047000.7,N
1655244855.6,286047000.9,N
1655244875.4,286046998.2,N
1655244895.3,286046998.6,N
1655244915.1,286046998.6,N
1655244935.9,286046998.5,N
1655244955.7,286046998.6,N
1655244975.5,286046998.5,N
1655244995.4,286046998.5,N
1655245015.2,286047001.2,N
1655245035.1,286046998.3,N
1655245036.0,286046998.3,N
1655245055.8,286047000.8,N
1655245075.6,286046998.5,N
1655245095.5,286046998.3,N
1655245115.3,286046998.2,N
1655245135.1,286047000.8,N
1655245155.9,286047000.5,N
1655245175.7,286047001.0,N
1655245195.6,286046998.6,N
1655245215.4,286047001.2,N
1655245235.2,286046998.6,N
1655245255.1,286047000.6,N
1655245256.0,286047000.6,N
1655245275.8,286046999.9,N
1655245295.7,286047002.8,N
1655245315.5,286047002.4,N
1655245335.3,286047002.0,N
1655245355.2,286047002.2,N
1655245375.0,286047002.3,N
1655245375.9,286047002.3,N
1655245395.8,286047002.4,N
1655245415.6,286047001.8,N
1655245435.4,286047002.3,N
1655245455.3,286046999.8,N
1655245475.1,286047000.9,N
1655245495.8,286047002.3,N
1655245515.7,286047002.3,N
1655245535.5,286047002.7,N
1655245555.4,286047002.5,N
1655245575.2,286047002.6,N
1655245595.0,286047002.8,N
1655245595.9,286047002.8,N
1655245615.8,286047002.4,N
1655245635.6,286047001.5,N
1655245655.5,286047002.4,N
1655245675.3,286047001.4,N
1655245695.1,286047001.8,N
1655245715.9,286047001.3,N
1655245735.7,286047002.5,N
1655245755.5,286047002.3,N
1655245775.4,286047000.3,N
1655245795.2,286047002.7,Y
1655245815.1,286046999.1,P
1655245816.0,286046999.1,N
1655245835.8,286046999.6,N
1655245855.6,286046997.2,N
1655245875.5,286046997.2,N
1655245895.3,286046997.4,N
1655245915.1,286046997.2,N
1655245935.9,286046997.1,N
1655245955.7,286046999.5,N
1655245975.6,286046999.1,N
1655245995.4,286046996.6,N
1655246015.2,286046997.9,N
1655246035.1,286046997.7,N
1655246036.0,286046997.7,N
1655246055.8,286046997.3,N
1655246075.7,286046997.7,N
1655246095.5,286046995.3,Y
1655246115.3,286046999.6,P
1655246135.2,286046999.3,N
1655246155.0,286046998.4,N
1655246155.9,286046998.4,N
1655246175.7,286046998.8,N
1655246195.6,286046998.4,Y
1655246215.4,286047000.4,P
1655246235.3,286047002.2,N
1655246255.1,286047004.3,P
1655246256.0,286047004.3,N
1655246275.8,286047003.2,N
1655246295.7,286047003.2,N
1655246315.5,286047005.5,N
1655246335.3,286047005.7,N
1655246355.2,286047005.6,N
1655246375.0,286047011.9,Y
1655246375.9,286047005.6,P
1655246395.8,286047002.2,N
1655246415.6,286047002.0,N
1655246435.4,286047002.6,N
1655246455.3,286047002.5,N
1655246475.1,286047002.3,N
1655246495.9,286047002.3,N
1655246515.7,286047002.3,N
1655246535.5,286046999.8,N
1655246555.4,286047002.8,N
1655246575.2,286046999.7,N
1655246595.0,286047002.3,N
1655246595.9,286047002.3,N
1655246615.8,286047000.2,N
1655246635.6,286047002.7,N
1655246655.5,286047002.4,N
1655246675.3,286047002.5,N
1655246695.1,286047002.1,N
1655246715.9,286047002.3,N
1655246735.7,286047002.1,N
1655246755.6,286047001.5,N
1655246775.4,286047002.6,N
1655246795.2,286047002.7,N
1655246815.1,286047002.7,N
1655246816.0,286047002.7,N
1655246835.8,286047001.7,N
1655246855.6,286047002.6,N
1655246875.5,286047002.6,N
1655246895.3,286047002.2,N
1655246915.2,286047001.6,N
1655246935.9,286047001.7,N
1655246955.7,286047002.5,Y
1655246975.6,286047000.3,P
1655246995.4,286046999.7,N
1655247015.3,286047002.4,N
1655247035.1,286046999.8,N
1655247036.0,286046999.8,N
1655247055.8,286047000.1,N
1655247075.7,286047002.8,N
1655247095.5,286047000.2,N
1655247115.4,286046999.9,N
1655247135.2,286046999.8,N
1655247155.0,286047002.0,N
1655247155.9,286047002.0,N
1655247175.8,286046999.7,N
1655247195.6,286047001.6,N
1655247215.4,286047002.4,N
1655247235.3,286047004.0,Y
1655247255.1,286047002.5,P
1655247275.9,286047002.5,P
1655247295.7,286046999.7,N
1655247315.5,286046999.8,N
1655247335.4,286047002.3,N
1655247355.2,286047002.8,N
1655247375.1,286046999.7,N
1655247376.0,286046999.7,N
1655247395.8,286047000.0,N
1655247415.6,286047002.7,N
1655247435.5,286047000.2,N
1655247455.3,286047002.4,N
1655247475.1,286047000.1,N
1655247495.9,286047001.2,N
1655247515.7,286046999.9,N
1655247535.6,286047000.1,N
1655247555.4,286047000.4,N
1655247575.2,286047000.1,N
1655247595.1,286047000.6,N
1655247596.0,286047000.6,N
